Simultaneous Nadir Overpasses (SNOs) Predictions

Prediction of SNOs between METOP-A and TERRA Satellite Orbit:

Table of predicted SNOs for the next 14.0 days since TLE Epoch: 5/11/2012
Index Date (METOP-A) Time (METOP-A) METOP-A Lat,Lon Date (TERRA) Time (TERRA) TERRA Lat,Lon Distance(km) Time Diff (sec)
1 05/12/2012 06:45:59 -81.30, -54.46 05/12/2012 06:46:51 -81.30, -54.57 1.88 52
2 05/12/2012 07:36:39 81.31, 113.31 05/12/2012 07:36:17 81.31, 113.17 2.38 22
3 05/15/2012 02:20:23 -81.30, 11.65 05/15/2012 02:21:06 -81.29, 11.66 0.78 43
4 05/15/2012 03:11:02 81.31, 179.76 05/15/2012 03:10:31 81.32, 179.75 0.77 31
5 05/17/2012 21:54:45 -81.30, 78.11 05/17/2012 21:55:19 -81.30, 78.16 1.00 34
6 05/17/2012 22:45:24 81.31,-113.82 05/17/2012 22:44:44 81.32,-113.77 1.14 40
7 05/20/2012 17:29:07 -81.31, 144.93 05/20/2012 17:29:32 -81.31, 144.93 0.85 25
8 05/20/2012 18:19:47 81.31, -47.43 05/20/2012 18:18:58 81.31, -47.41 0.59 49
9 05/23/2012 13:03:30 -81.31,-148.67 05/23/2012 13:03:46 -81.30,-148.79 1.95 16




NCC Satellite Simultaneous Nadir Overpasses (SNOs) Prediction Service
